Sovereign — 9HUE9 — position and weather

sailwx.info

Track history (hours):
 
Tides and Currents Weather Stations Pressure Air Temp Water Temp Dewpoint Dewpoint Depression Visibility Wind Speed Wind Dir Waves Ship Positions

Sovereign

Last reported at 2014-Oct-21 17:31 UTC. Time now 2014-Oct-23 12:21 UTC.
Position N 39°02' E 009°31'.

Length 268 m; draft 7.8 m.

Type: Passenger vessel. MMSI: 249539000.

Date/timePositionNaut miles runAvg speedWind from/ knotsBaromVisibWave heightAir tempDewpointWater temp
2014-Oct-21 17:31N 39°02' E 009°31'1717.4
2014-Oct-21 16:33N 39°09' E 009°11'5 5.3
2014-Oct-21 15:33N 39°13' E 009°06'0 0.0
2014-Oct-21 14:33N 39°13' E 009°06'0 0.0
2014-Oct-21 13:33N 39°13' E 009°06'0 0.0
2014-Oct-21 12:33N 39°13' E 009°06'0 0.0
2014-Oct-21 11:33N 39°13' E 009°06'2 2.1
2014-Oct-21 10:33N 39°11' E 009°07'1313.3
2014-Oct-21 09:34N 38°57' E 009°06'1717.0
2014-Oct-21 08:33N 38°48' E 008°48'2017.3
2014-Oct-21 07:22N 38°42' E 008°22'1718.2
2014-Oct-21 06:27N 38°38' E 008°02'10917.5
2014-Oct-21 00:12N 38°09' E 005°47'8117.1
2014-Oct-20 19:28N 37°47' E 004°08'5017.0
2014-Oct-20 16:31N 37°33' E 003°07'1817.0
2014-Oct-20 15:29N 37°29' E 002°46'2116.9
2014-Oct-20 14:13N 37°23' E 002°20'1116.9
2014-Oct-20 13:33N 37°20' E 002°07'1917.0
2014-Oct-20 12:27N 37°15' E 001°44'1617.3
2014-Oct-20 11:33N 37°11' E 001°25'2417.1
2014-Oct-20 10:09N 37°04' E 000°56'1016.8
2014-Oct-20 09:32N 37°01' E 000°44'1716.7
2014-Oct-20 08:30N 36°57' E 000°23'4916.5
2014-Oct-20 05:31N 36°44' W 000°36'41 1.4
2014-Oct-19 00:27N 36°60' W 001°24'1717.6
2014-Oct-18 23:29N 37°11' W 001°08'1717.8
2014-Oct-18 22:32N 37°22' W 000°52'1717.7
2014-Oct-18 21:33N 37°33' W 000°35'1717.6
2014-Oct-18 20:34N 37°48' W 000°23'1917.9
2014-Oct-18 19:31N 38°03' W 000°10'1717.8
2014-Oct-18 18:33N 38°18' E 000°02'1918.0
2014-Oct-18 17:31N 38°33' E 000°15'1515.4
2014-Oct-18 16:32N 38°48' E 000°20'3717.2
2014-Oct-18 14:22N 39°18' W 000°09'1214.6
2014-Oct-18 13:33N 39°27' W 000°19'1 0.7
2014-Oct-18 12:31N 39°27' W 000°19'0 0.0
2014-Oct-18 11:31N 39°27' W 000°19'0 0.0
2014-Oct-18 10:31N 39°27' W 000°19'0 0.0
2014-Oct-18 09:31N 39°27' W 000°19'0 0.0
2014-Oct-18 08:31N 39°27' W 000°19'0 0.0
2014-Oct-18 07:31N 39°27' W 000°19'0 0.0
2014-Oct-18 06:31N 39°27' W 000°19'0 0.0
2014-Oct-18 05:31N 39°27' W 000°19'1 0.6
2014-Oct-18 04:34N 39°27' W 000°19'7 7.3
2014-Oct-18 03:33N 39°27' W 000°10'1514.1
2014-Oct-18 02:30N 39°38' E 000°04'1515.6
2014-Oct-18 01:33N 39°48' E 000°17'1616.0
2014-Oct-18 00:33N 39°60' E 000°32'1515.4
2014-Oct-17 23:33N 40°10' E 000°47'1515.3
2014-Oct-17 22:33N 40°19' E 001°03'1515.4
2014-Oct-17 21:33N 40°29' E 001°19'1515.2
2014-Oct-17 20:33N 40°38' E 001°34'1515.1
2014-Oct-17 19:33N 40°51' E 001°46'1515.2
2014-Oct-17 18:33N 41°03' E 001°58'1515.0
2014-Oct-17 17:34N 41°15' E 002°09'7 6.0
2014-Oct-17 16:26N 41°22' E 002°11'0 0.0
2014-Oct-17 14:26N 41°22' E 002°11'0 0.0
2014-Oct-17 13:14N 41°22' E 002°11'0 0.0
2014-Oct-17 12:32N 41°22' E 002°11'0 0.0
2014-Oct-17 11:32N 41°22' E 002°11'0 0.0
2014-Oct-17 09:32N 41°22' E 002°11'0 0.0
2014-Oct-17 08:20N 41°22' E 002°11'0 0.0
2014-Oct-17 07:32N 41°22' E 002°11'1 1.4
2014-Oct-17 06:33N 41°20' E 002°10'8 8.1
2014-Oct-17 05:33N 41°18' E 002°20'1717.1
2014-Oct-17 04:33N 41°26' E 002°41'1717.3
2014-Oct-17 03:33N 41°34' E 003°01'1717.1
2014-Oct-17 02:33N 41°42' E 003°22'2216.6
2014-Oct-17 01:15N 41°52' E 003°47'7415.7
2014-Oct-16 20:32N 42°26' E 005°16'3916.7
2014-Oct-16 18:12N 42°44' E 006°02'2917.7
2014-Oct-16 16:33N 43°00' E 006°36'1818.0
2014-Oct-16 15:33N 43°14' E 006°52'1817.5
2014-Oct-16 14:33N 43°27' E 007°08'1515.2
2014-Oct-16 13:34N 43°40' E 007°18'2 1.6
2014-Oct-16 12:26N 43°42' E 007°19'0 0.0
2014-Oct-16 11:32N 43°42' E 007°19'0 0.0
2014-Oct-16 10:32N 43°42' E 007°19'0 0.1
2014-Oct-16 09:32N 43°42' E 007°19'0 0.0
2014-Oct-16 08:26N 43°42' E 007°19'0 0.0
2014-Oct-16 07:32N 43°42' E 007°19'0 0.0
2014-Oct-16 06:32N 43°42' E 007°19'0 0.0
2014-Oct-16 05:32N 43°42' E 007°19'0 0.1
2014-Oct-16 04:33N 43°42' E 007°19'1111.2
2014-Oct-16 03:33N 43°39' E 007°34'1614.4
2014-Oct-16 02:29N 43°38' E 007°55'1813.3
2014-Oct-16 01:05N 43°37' E 008°21'713.5
2014-Oct-16 00:34N 43°36' E 008°31'1413.5
2014-Oct-15 23:33N 43°36' E 008°49'1413.9
2014-Oct-15 22:33N 43°34' E 009°08'1414.1
2014-Oct-15 21:33N 43°34' E 009°28'1414.3
2014-Oct-15 20:33N 43°33' E 009°48'1413.9
2014-Oct-15 19:33N 43°29' E 010°06'8 8.5
2014-Oct-15 18:33N 43°32' E 010°17'1 1.0
2014-Oct-15 17:32N 43°33' E 010°18'0 0.0
2014-Oct-15 16:31N 43°33' E 010°18'0 0.0
2014-Oct-15 15:31N 43°33' E 010°18'0 0.0
2014-Oct-15 14:32N 43°33' E 010°18'0 0.0
2014-Oct-15 13:31N 43°33' E 010°18'0 0.0
2014-Oct-15 12:32N 43°33' E 010°18'0 0.0
2014-Oct-15 11:32N 43°33' E 010°18'0 0.0
2014-Oct-15 10:32N 43°33' E 010°18'0 0.0
2014-Oct-15 09:31N 43°33' E 010°18'0 0.0
2014-Oct-15 08:31N 43°33' E 010°18'0 0.0
2014-Oct-15 07:31N 43°33' E 010°18'0 0.0
2014-Oct-15 06:31N 43°33' E 010°18'0 0.0
2014-Oct-15 05:33N 43°33' E 010°18'7 6.9
2014-Oct-15 04:34N 43°27' E 010°13'1313.0
2014-Oct-15 03:33N 43°15' E 010°08'1313.2
2014-Oct-15 02:33N 43°02' E 010°08'1313.3
2014-Oct-15 01:33N 42°50' E 009°60'225 6.8
2014-Oct-13 16:21N 40°50' E 014°15'0 0.0
2014-Oct-13 15:34N 40°50' E 014°15'0 0.0
2014-Oct-13 14:33N 40°50' E 014°15'0 0.0
2014-Oct-13 13:34N 40°50' E 014°15'0 0.0
2014-Oct-13 12:30N 40°50' E 014°15'0 0.0
2014-Oct-13 11:21N 40°50' E 014°15'0 0.0
2014-Oct-13 10:12N 40°50' E 014°15'0 0.0
2014-Oct-13 09:33N 40°50' E 014°15'0 0.0
2014-Oct-13 08:33N 40°50' E 014°15'0 0.0
2014-Oct-13 06:27N 40°50' E 014°15'17 9.1
2014-Oct-13 04:33N 40°38' E 013°59'1615.5
2014-Oct-13 03:33N 40°39' E 013°39'22616.0
2014-Oct-12 13:25N 41°17' E 008°44'1415.4
2014-Oct-12 12:29N 41°17' E 008°25'1415.1
2014-Oct-12 11:33N 41°17' E 008°06'2914.3
2014-Oct-12 09:33N 41°17' E 007°28'1514.8
2014-Oct-12 08:33N 41°17' E 007°08'1514.2
2014-Oct-12 07:32N 41°17' E 006°49'1414.6
2014-Oct-12 06:33N 41°17' E 006°30'1614.5
2014-Oct-12 05:28N 41°17' E 006°09'10314.9
2014-Oct-11 22:31N 41°17' E 003°51'1414.8
2014-Oct-11 21:33N 41°17' E 003°32'1514.7
2014-Oct-11 20:33N 41°16' E 003°13'1414.4
2014-Oct-11 19:33N 41°16' E 002°54'1514.5
2014-Oct-11 18:33N 41°16' E 002°34'1414.0
2014-Oct-11 17:33N 41°16' E 002°16'  
Track history (hours):
 
Tides and Currents Weather Stations Pressure Air Temp Water Temp Dewpoint Dewpoint Depression Visibility Wind Speed Wind Dir Waves Ship Positions

Sovereign

Last reported at 2014-Oct-21 17:31 UTC. Time now 2014-Oct-23 12:21 UTC.
Position N 39°02' E 009°31'.

Length 268 m; draft 7.8 m.

Type: Passenger vessel. MMSI: 249539000.

Date/timePositionNaut miles runAvg speedWind from/ knotsBaromVisibWave heightAir tempDewpointWater temp
2014-Oct-21 17:31N 39°02' E 009°31'1717.4
2014-Oct-21 16:33N 39°09' E 009°11'5 5.3
2014-Oct-21 15:33N 39°13' E 009°06'0 0.0
2014-Oct-21 14:33N 39°13' E 009°06'0 0.0
2014-Oct-21 13:33N 39°13' E 009°06'0 0.0
2014-Oct-21 12:33N 39°13' E 009°06'0 0.0
2014-Oct-21 11:33N 39°13' E 009°06'2 2.1
2014-Oct-21 10:33N 39°11' E 009°07'1313.3
2014-Oct-21 09:34N 38°57' E 009°06'1717.0
2014-Oct-21 08:33N 38°48' E 008°48'2017.3
2014-Oct-21 07:22N 38°42' E 008°22'1718.2
2014-Oct-21 06:27N 38°38' E 008°02'10917.5
2014-Oct-21 00:12N 38°09' E 005°47'8117.1
2014-Oct-20 19:28N 37°47' E 004°08'5017.0
2014-Oct-20 16:31N 37°33' E 003°07'1817.0
2014-Oct-20 15:29N 37°29' E 002°46'2116.9
2014-Oct-20 14:13N 37°23' E 002°20'1116.9
2014-Oct-20 13:33N 37°20' E 002°07'1917.0
2014-Oct-20 12:27N 37°15' E 001°44'1617.3
2014-Oct-20 11:33N 37°11' E 001°25'2417.1
2014-Oct-20 10:09N 37°04' E 000°56'1016.8
2014-Oct-20 09:32N 37°01' E 000°44'1716.7
2014-Oct-20 08:30N 36°57' E 000°23'4916.5
2014-Oct-20 05:31N 36°44' W 000°36'41 1.4
2014-Oct-19 00:27N 36°60' W 001°24'1717.6
2014-Oct-18 23:29N 37°11' W 001°08'1717.8
2014-Oct-18 22:32N 37°22' W 000°52'1717.7
2014-Oct-18 21:33N 37°33' W 000°35'1717.6
2014-Oct-18 20:34N 37°48' W 000°23'1917.9
2014-Oct-18 19:31N 38°03' W 000°10'1717.8
2014-Oct-18 18:33N 38°18' E 000°02'1918.0
2014-Oct-18 17:31N 38°33' E 000°15'1515.4
2014-Oct-18 16:32N 38°48' E 000°20'3717.2
2014-Oct-18 14:22N 39°18' W 000°09'1214.6
2014-Oct-18 13:33N 39°27' W 000°19'1 0.7
2014-Oct-18 12:31N 39°27' W 000°19'0 0.0
2014-Oct-18 11:31N 39°27' W 000°19'0 0.0
2014-Oct-18 10:31N 39°27' W 000°19'0 0.0
2014-Oct-18 09:31N 39°27' W 000°19'0 0.0
2014-Oct-18 08:31N 39°27' W 000°19'0 0.0
2014-Oct-18 07:31N 39°27' W 000°19'0 0.0
2014-Oct-18 06:31N 39°27' W 000°19'0 0.0
2014-Oct-18 05:31N 39°27' W 000°19'1 0.6
2014-Oct-18 04:34N 39°27' W 000°19'7 7.3
2014-Oct-18 03:33N 39°27' W 000°10'1514.1
2014-Oct-18 02:30N 39°38' E 000°04'1515.6
2014-Oct-18 01:33N 39°48' E 000°17'1616.0
2014-Oct-18 00:33N 39°60' E 000°32'1515.4
2014-Oct-17 23:33N 40°10' E 000°47'1515.3
2014-Oct-17 22:33N 40°19' E 001°03'1515.4
2014-Oct-17 21:33N 40°29' E 001°19'1515.2
2014-Oct-17 20:33N 40°38' E 001°34'1515.1
2014-Oct-17 19:33N 40°51' E 001°46'1515.2
2014-Oct-17 18:33N 41°03' E 001°58'1515.0
2014-Oct-17 17:34N 41°15' E 002°09'7 6.0
2014-Oct-17 16:26N 41°22' E 002°11'0 0.0
2014-Oct-17 14:26N 41°22' E 002°11'0 0.0
2014-Oct-17 13:14N 41°22' E 002°11'0 0.0
2014-Oct-17 12:32N 41°22' E 002°11'0 0.0
2014-Oct-17 11:32N 41°22' E 002°11'0 0.0
2014-Oct-17 09:32N 41°22' E 002°11'0 0.0
2014-Oct-17 08:20N 41°22' E 002°11'0 0.0
2014-Oct-17 07:32N 41°22' E 002°11'1 1.4
2014-Oct-17 06:33N 41°20' E 002°10'8 8.1
2014-Oct-17 05:33N 41°18' E 002°20'1717.1
2014-Oct-17 04:33N 41°26' E 002°41'1717.3
2014-Oct-17 03:33N 41°34' E 003°01'1717.1
2014-Oct-17 02:33N 41°42' E 003°22'2216.6
2014-Oct-17 01:15N 41°52' E 003°47'7415.7
2014-Oct-16 20:32N 42°26' E 005°16'3916.7
2014-Oct-16 18:12N 42°44' E 006°02'2917.7
2014-Oct-16 16:33N 43°00' E 006°36'1818.0
2014-Oct-16 15:33N 43°14' E 006°52'1817.5
2014-Oct-16 14:33N 43°27' E 007°08'1515.2
2014-Oct-16 13:34N 43°40' E 007°18'2 1.6
2014-Oct-16 12:26N 43°42' E 007°19'0 0.0
2014-Oct-16 11:32N 43°42' E 007°19'0 0.0
2014-Oct-16 10:32N 43°42' E 007°19'0 0.1
2014-Oct-16 09:32N 43°42' E 007°19'0 0.0
2014-Oct-16 08:26N 43°42' E 007°19'0 0.0
2014-Oct-16 07:32N 43°42' E 007°19'0 0.0
2014-Oct-16 06:32N 43°42' E 007°19'0 0.0
2014-Oct-16 05:32N 43°42' E 007°19'0 0.1
2014-Oct-16 04:33N 43°42' E 007°19'1111.2
2014-Oct-16 03:33N 43°39' E 007°34'1614.4
2014-Oct-16 02:29N 43°38' E 007°55'1813.3
2014-Oct-16 01:05N 43°37' E 008°21'713.5
2014-Oct-16 00:34N 43°36' E 008°31'1413.5
2014-Oct-15 23:33N 43°36' E 008°49'1413.9
2014-Oct-15 22:33N 43°34' E 009°08'1414.1
2014-Oct-15 21:33N 43°34' E 009°28'1414.3
2014-Oct-15 20:33N 43°33' E 009°48'1413.9
2014-Oct-15 19:33N 43°29' E 010°06'8 8.5
2014-Oct-15 18:33N 43°32' E 010°17'1 1.0
2014-Oct-15 17:32N 43°33' E 010°18'0 0.0
2014-Oct-15 16:31N 43°33' E 010°18'0 0.0
2014-Oct-15 15:31N 43°33' E 010°18'0 0.0
2014-Oct-15 14:32N 43°33' E 010°18'0 0.0
2014-Oct-15 13:31N 43°33' E 010°18'0 0.0
2014-Oct-15 12:32N 43°33' E 010°18'0 0.0
2014-Oct-15 11:32N 43°33' E 010°18'0 0.0
2014-Oct-15 10:32N 43°33' E 010°18'0 0.0
2014-Oct-15 09:31N 43°33' E 010°18'0 0.0
2014-Oct-15 08:31N 43°33' E 010°18'0 0.0
2014-Oct-15 07:31N 43°33' E 010°18'0 0.0
2014-Oct-15 06:31N 43°33' E 010°18'0 0.0
2014-Oct-15 05:33N 43°33' E 010°18'7 6.9
2014-Oct-15 04:34N 43°27' E 010°13'1313.0
2014-Oct-15 03:33N 43°15' E 010°08'1313.2
2014-Oct-15 02:33N 43°02' E 010°08'1313.3
2014-Oct-15 01:33N 42°50' E 009°60'225 6.8
2014-Oct-13 16:21N 40°50' E 014°15'0 0.0
2014-Oct-13 15:34N 40°50' E 014°15'0 0.0
2014-Oct-13 14:33N 40°50' E 014°15'0 0.0
2014-Oct-13 13:34N 40°50' E 014°15'0 0.0
2014-Oct-13 12:30N 40°50' E 014°15'0 0.0
2014-Oct-13 11:21N 40°50' E 014°15'0 0.0
2014-Oct-13 10:12N 40°50' E 014°15'0 0.0
2014-Oct-13 09:33N 40°50' E 014°15'0 0.0
2014-Oct-13 08:33N 40°50' E 014°15'0 0.0
2014-Oct-13 06:27N 40°50' E 014°15'17 9.1
2014-Oct-13 04:33N 40°38' E 013°59'1615.5
2014-Oct-13 03:33N 40°39' E 013°39'22616.0
2014-Oct-12 13:25N 41°17' E 008°44'1415.4
2014-Oct-12 12:29N 41°17' E 008°25'1415.1
2014-Oct-12 11:33N 41°17' E 008°06'2914.3
2014-Oct-12 09:33N 41°17' E 007°28'1514.8
2014-Oct-12 08:33N 41°17' E 007°08'1514.2
2014-Oct-12 07:32N 41°17' E 006°49'1414.6
2014-Oct-12 06:33N 41°17' E 006°30'1614.5
2014-Oct-12 05:28N 41°17' E 006°09'10314.9
2014-Oct-11 22:31N 41°17' E 003°51'1414.8
2014-Oct-11 21:33N 41°17' E 003°32'1514.7
2014-Oct-11 20:33N 41°16' E 003°13'1414.4
2014-Oct-11 19:33N 41°16' E 002°54'1514.5
2014-Oct-11 18:33N 41°16' E 002°34'1414.0
2014-Oct-11 17:33N 41°16' E 002°16'  

Dump ship's entire track history